Weather History for KCKP - November, 2012

Change the Weather History Date:

Wednesday, November 7, 2012

  Actual Average Record
Temperature  
Mean Temperature 40 °F -  
Max Temperature 49 °F 48 °F 78 °F (1980)
Min Temperature 30 °F 25 °F -17 °F (1991)
Degree Days  
Heating Degree Days 26    
Moisture  
Dew Point 31 °F    
Average Humidity 75    
Maximum Humidity 94    
Minimum Humidity 47    
Precipitation  
Precipitation 0.00 in - - ()
Sea Level Pressure  
Sea Level Pressure 30.08 in    
Wind  
Wind Speed 5 mph (South)    
Max Wind Speed 10 mph    
Max Gust Speed -    
Visibility 10 miles    
Events      
Averages and records for this station are not official NWS values.
T = Trace of Precipitation, MM = Missing Value Source: NWS Daily Summary

Daily Weather History Graph

Daily Weather History Graph

Search for Another Location

Airport or City:

Trip Planner

Search our weather history database for the weather conditions in past years. The results will help you decide how hot, cold, wet, or windy it might be!

Date:

Astronomy

Nov. 07, 2012 Rise Set
Actual Time 7:04 AM CST 5:06 PM CST
Civil Twilight 6:34 AM CST 5:36 PM CST
Nautical Twilight 6:00 AM CST 6:10 PM CST
Astronomical Twilight 5:27 AM CST 6:43 PM CST
Moon No Moon Rise 1:25 PM CST (11/7)
Length of Visible Light 11h 02m
Length of Day
10h 02m
Last Quarter, 43% of the Moon is Illuminated
Nov 7
Last Quarter
Nov 13
New
Nov 20
First Quarter
Nov 28
Full
Dec 6
Last Quarter

Hourly Weather History & Observations

Time (CST) Temp. Windchill Dew Point Humidity Pressure Visibility Wind Dir Wind Speed Gust Speed Precip Events Conditions
12:15 AM 41.2 °F 35.5 °F 34.0 °F 76% 30.05 in 10.0 mi NNW 9.2 mph - N/A   Overcast
12:35 AM 41.2 °F 36.0 °F 34.3 °F 77% 30.05 in 10.0 mi North 8.1 mph - N/A   Overcast
12:55 AM 40.3 °F 35.5 °F 33.8 °F 78% 30.06 in 10.0 mi NNW 6.9 mph - N/A   Scattered Clouds
1:15 AM 39.7 °F 35.6 °F 33.1 °F 77% 30.06 in 10.0 mi NNW 5.8 mph - N/A   Clear
1:35 AM 37.6 °F 33.1 °F 32.9 °F 83% 30.07 in 10.0 mi WNW 5.8 mph - N/A   Clear
1:55 AM 36.5 °F 31.8 °F 32.0 °F 84% 30.08 in 10.0 mi NW 5.8 mph - N/A   Clear
2:15 AM 35.6 °F 29.9 °F 32.0 °F 87% 30.08 in 10.0 mi NNW 6.9 mph - N/A   Clear
2:55 AM 34.3 °F 30.2 °F 31.5 °F 89% 30.08 in 10.0 mi NNW 4.6 mph - N/A   Clear
3:15 AM 33.4 °F - 30.9 °F 90% 30.09 in 10.0 mi Calm Calm - N/A   Clear
3:35 AM 33.1 °F - 30.9 °F 92% 30.09 in 10.0 mi Calm Calm - N/A   Clear
3:55 AM 32.5 °F 28.1 °F 30.7 °F 93% 30.09 in 10.0 mi North 4.6 mph - N/A   Clear
4:15 AM 32.5 °F 27.1 °F 30.7 °F 93% 30.09 in 10.0 mi NNW 5.8 mph - N/A   Clear
4:35 AM 32.7 °F 29.6 °F 30.7 °F 92% 30.10 in 10.0 mi NNE 3.5 mph - N/A   Clear
4:55 AM 32.5 °F 29.3 °F 30.7 °F 93% 30.10 in 10.0 mi North 3.5 mph - N/A   Clear
5:15 AM 32.0 °F - 29.8 °F 92% 30.11 in 10.0 mi Calm Calm - N/A   Clear
5:35 AM 31.8 °F - 30.0 °F 93% 30.11 in 10.0 mi Calm Calm - N/A   Clear
5:55 AM 32.0 °F 27.5 °F 30.2 °F 93% 30.12 in 10.0 mi North 4.6 mph - N/A   Clear
6:15 AM 31.6 °F - 29.5 °F 92% 30.13 in 10.0 mi Calm Calm - N/A   Clear
6:35 AM 31.8 °F 27.3 °F 29.7 °F 92% 30.13 in 10.0 mi North 4.6 mph - N/A   Clear
6:55 AM 31.1 °F - 28.9 °F 92% 30.13 in 10.0 mi Calm Calm - N/A   Clear
7:15 AM 30.6 °F 27.1 °F 29.1 °F 94% 30.13 in 10.0 mi NE 3.5 mph - N/A   Clear
7:35 AM 30.6 °F - 29.1 °F 94% 30.14 in 10.0 mi Calm Calm - N/A   Clear
7:55 AM 31.3 °F - 29.8 °F 94% 30.15 in 10.0 mi Calm Calm - N/A   Clear
8:15 AM 32.5 °F - 30.4 °F 92% 30.14 in 10.0 mi Calm Calm - N/A   Clear
8:35 AM 33.6 °F - 31.1 °F 90% 30.15 in 10.0 mi Calm Calm - N/A   Clear
8:55 AM 34.7 °F - 31.6 °F 89% 30.16 in 10.0 mi Calm Calm - N/A   Clear
9:15 AM 36.7 °F - 32.0 °F 83% 30.15 in 10.0 mi Calm Calm - N/A   Clear
9:35 AM 38.5 °F - 32.7 °F 80% 30.15 in 10.0 mi Calm Calm - N/A   Clear
9:55 AM 40.3 °F - 33.3 °F 76% 30.15 in 10.0 mi Calm Calm - N/A   Clear
10:15 AM 41.5 °F - 33.6 °F 73% 30.15 in 10.0 mi Calm Calm - N/A   Clear
10:35 AM 42.6 °F - 32.7 °F 68% 30.15 in 10.0 mi Calm Calm - N/A   Clear
10:55 AM 43.5 °F - 32.0 °F 64% 30.15 in 10.0 mi Calm Calm - N/A   Clear
11:15 AM 44.8 °F 43.3 °F 31.8 °F 60% 30.14 in 10.0 mi South 3.5 mph - N/A   Clear
11:35 AM 45.7 °F - 31.3 °F 57% 30.14 in 10.0 mi Calm Calm - N/A   Clear
11:55 AM 46.4 °F - 29.8 °F 53% 30.13 in 10.0 mi Calm Calm - N/A   Clear
12:15 PM 47.5 °F - 31.1 °F 53% 30.12 in 10.0 mi Calm Calm - N/A   Clear
12:35 PM 47.5 °F - 31.5 °F 54% 30.11 in 10.0 mi West 4.6 mph - N/A   Clear
12:55 PM 47.7 °F - 31.1 °F 53% 30.10 in 10.0 mi WSW 3.5 mph - N/A   Clear
1:15 PM 48.2 °F - 31.5 °F 52% 30.09 in 10.0 mi WSW 4.6 mph - N/A   Clear
1:35 PM 48.2 °F - 31.3 °F 52% 30.09 in 10.0 mi Calm Calm - N/A   Clear
1:55 PM 48.9 °F - 31.8 °F 52% 30.08 in 10.0 mi SW 4.6 mph - N/A   Clear
2:15 PM 48.9 °F - 30.2 °F 48% 30.07 in 10.0 mi Calm Calm - N/A   Clear
2:35 PM 49.3 °F - 30.2 °F 48% 30.06 in 10.0 mi Calm Calm - N/A   Clear
2:55 PM 49.6 °F - 29.8 °F 47% 30.06 in 10.0 mi Calm Calm - N/A   Clear
3:15 PM 49.3 °F - 30.6 °F 49% 30.06 in 10.0 mi SSE 3.5 mph - N/A   Clear
3:35 PM 48.9 °F - 30.2 °F 48% 30.06 in 10.0 mi SSE 3.5 mph - N/A   Clear
3:55 PM 49.6 °F - 30.9 °F 49% 30.06 in 10.0 mi SSE 5.8 mph - N/A   Clear
4:15 PM 49.1 °F - 31.3 °F 50% 30.05 in 10.0 mi SSE 5.8 mph - N/A   Clear
4:35 PM 48.6 °F - 31.8 °F 52% 30.05 in 10.0 mi SE 5.8 mph - N/A   Clear
4:55 PM 47.1 °F - 32.0 °F 56% 30.04 in 10.0 mi SSE 4.6 mph - N/A   Clear
5:15 PM 45.0 °F 41.8 °F 32.0 °F 60% 30.04 in 10.0 mi SE 5.8 mph - N/A   Clear
5:35 PM 43.0 °F 38.8 °F 32.0 °F 65% 30.04 in 10.0 mi SE 6.9 mph - N/A   Clear
5:55 PM 42.3 °F 37.9 °F 31.6 °F 66% 30.04 in 10.0 mi SE 6.9 mph - N/A   Clear
6:15 PM 41.9 °F 37.5 °F 31.3 °F 66% 30.04 in 10.0 mi SE 6.9 mph - N/A   Clear
6:35 PM 40.8 °F 35.6 °F 30.9 °F 68% 30.04 in 10.0 mi SE 8.1 mph - N/A   Clear
6:55 PM 39.4 °F 35.2 °F 30.9 °F 72% 30.03 in 10.0 mi SSE 5.8 mph - N/A   Clear
7:15 PM 39.7 °F 34.9 °F 31.1 °F 71% 30.03 in 10.0 mi SSE 6.9 mph - N/A   Clear
7:35 PM 38.5 °F 33.4 °F 30.9 °F 74% 30.03 in 10.0 mi SE 6.9 mph - N/A   Clear
7:55 PM 38.3 °F 33.9 °F 31.1 °F 75% 30.03 in 10.0 mi SSE 5.8 mph - N/A   Clear
8:15 PM 36.0 °F 31.1 °F 30.9 °F 82% 30.03 in 10.0 mi South 5.8 mph - N/A   Clear
8:35 PM 37.6 °F 34.0 °F 31.8 °F 80% 30.03 in 10.0 mi South 4.6 mph - N/A   Clear
8:55 PM 36.5 °F 31.8 °F 31.6 °F 83% 30.04 in 10.0 mi South 5.8 mph - N/A   Clear
9:15 PM 35.8 °F 30.9 °F 31.5 °F 84% 30.04 in 10.0 mi South 5.8 mph - N/A   Clear
9:35 PM 36.0 °F 30.3 °F 32.0 °F 86% 30.04 in 10.0 mi South 6.9 mph - N/A   Clear
9:55 PM 36.9 °F 30.1 °F 32.0 °F 83% 30.04 in 10.0 mi South 9.2 mph - N/A   Clear
10:15 PM 35.8 °F 30.1 °F 32.0 °F 86% 30.04 in 10.0 mi South 6.9 mph - N/A   Clear
10:35 PM 36.0 °F 30.3 °F 32.0 °F 86% 30.03 in 10.0 mi South 6.9 mph - N/A   Clear
10:55 PM 35.4 °F 27.8 °F 32.0 °F 87% 30.03 in 10.0 mi SSE 10.4 mph - N/A   Clear
11:15 PM 35.6 °F 28.6 °F 32.0 °F 87% 30.02 in 10.0 mi South 9.2 mph - N/A   Clear
11:35 PM 35.6 °F 28.0 °F 32.0 °F 87% 30.01 in 10.0 mi SSE 10.4 mph - N/A   Clear
11:55 PM 36.1 °F 29.9 °F 32.0 °F 85% 30.01 in 10.0 mi SSE 8.1 mph - N/A   Clear